Location: Gokavaram
(16.9752°N, 81.0696°E)
Time: 11:28:24
(UTC+00:00)

Spot 2 - Pass Details

Date: 15 May 2026
Orbit: 557 x 740 km, 98.7° (Epoch: 6 June)

Event Time Altitude Azimuth Distance (km) Brightness Sun altitude
Exits shadow 22:13:37 55° 173° (S) 884 4.6 -24.7°
Maximum altitude 22:14:43 86° 256° (WSW) 743 4.3 -24.5°
Drops below altitude 10° 22:19:39 10° 347° (NNW) 2,225 7.1 -23.5°
Sets 22:21:55 0° 347° (NNW) 3,133 7.9 -23.0°
